GW1479 Weather Reports


time (UTC)temp
C
wind
direction
speed
KPH
gust
KPH
rain 1hr
cm
rain 24hr
cm
rain mn
cm
humidity
%
barometer
mb
20260510094819 8 113 0.0 0.0 0.00 0.00 0.00 99 1014.9
20260510094217 8 113 0.0 0.0 0.00 0.00 0.00 99 1014.9
20260510093039 8 113 0.0 0.0 0.00 0.00 0.00 99 1014.5
20260510092436 8 90 0.0 0.0 0.00 0.00 0.00 99 1014.5
20260510091840 8 113 0.0 0.0 0.00 0.00 0.00 99 1014.5
20260510091227 8 113 0.0 0.0 0.00 0.00 0.00 99 1014.5
20260510090617 8 113 0.0 0.0 0.00 0.00 0.00 99 1014.5
20260510090032 8 203 0.0 0.0 0.00 0.00 0.00 99 1014.5
20260510085434 8 315 0.0 0.0 0.00 0.00 0.00 99 1014.5
20260510084851 8 113 0.0 0.0 0.00 0.00 0.00 99 1014.5
20260510084215 8 225 0.0 0.0 0.00 0.00 0.00 99 1014.2
20260510083642 8 270 0.0 0.0 0.00 0.00 0.00 99 1014.2
20260510083019 8 45 0.0 0.0 0.00 0.00 0.00 99 1014.2
20260510082446 8 270 0.0 0.0 0.00 0.00 0.00 99 1014.2
20260510081826 8 90 0.0 0.0 0.00 0.00 0.00 99 1014.2
20260510081231 8 315 0.0 0.0 0.00 0.00 0.00 99 1014.2
20260510080629 8 270 4.8 4.8 0.00 0.00 0.00 99 1014.2
20260510080015 8 90 0.0 0.0 0.00 0.00 0.00 99 1013.8
20260510074807 8 90 0.0 0.0 0.00 0.00 0.00 99 1013.8
20260510074241 8 90 0.0 0.0 0.00 0.00 0.00 99 1014.2
20260510073620 8 45 0.0 0.0 0.00 0.00 0.00 99 1014.2
20260510073044 8 90 0.0 0.0 0.00 0.00 0.00 99 1014.2
20260510072409 8 338 0.0 0.0 0.00 0.00 0.00 99 1014.2
20260510071821 8 270 0.0 0.0 0.00 0.00 0.00 99 1014.2
20260510070614 8 113 0.0 0.0 0.00 0.00 0.00 99 1014.2
20260510070035 8 270 0.0 0.0 0.00 0.00 0.00 99 1014.2
20260510065413 8 90 0.0 0.0 0.00 0.00 0.00 99 1014.2
20260510064834 8 23 0.0 0.0 0.00 0.00 0.00 99 1014.2
20260510064232 8 68 0.0 0.0 0.00 0.00 0.00 99 1013.8
20260510063610 8 90 0.0 0.0 0.00 0.00 0.00 99 1014.2
20260510063023 8 135 0.0 0.0 0.00 0.00 0.00 99 1014.2
20260510062440 8 203 0.0 3.2 0.00 0.00 0.00 99 1014.2
20260510061835 8 270 0.0 0.0 0.00 0.00 0.00 99 1014.2
20260510060610 9 158 0.0 0.0 0.00 0.00 0.00 99 1014.5
20260510060045 9 113 0.0 0.0 0.00 0.00 0.00 99 1014.5
20260510055437 9 68 0.0 0.0 0.00 0.00 0.00 99 1014.5
20260510054808 9 90 0.0 0.0 0.00 0.00 0.00 99 1014.5
20260510054218 9 270 0.0 0.0 0.00 0.00 0.00 99 1014.5
20260510053639 9 248 0.0 0.0 0.00 0.00 0.00 99 1014.5
20260510053012 9 270 0.0 0.0 0.00 0.00 0.00 99 1014.5
20260510052439 9 270 0.0 0.0 0.00 0.00 0.00 99 1014.5
20260510051845 9 270 0.0 0.0 0.00 0.00 0.00 99 1014.5
20260510051215 9 270 0.0 0.0 0.00 0.00 0.00 99 1014.9
20260510050610 9 270 0.0 0.0 0.00 0.00 0.00 99 1014.5
20260510050037 9 90 0.0 0.0 0.00 0.00 0.00 99 1014.5
20260510045436 10 203 0.0 0.0 0.00 0.00 0.00 99 1014.5
20260510044821 10 270 0.0 0.0 0.00 0.00 0.00 99 1014.5
20260510044242 10 270 0.0 0.0 0.00 0.00 0.00 99 1014.5
20260510043608 10 270 0.0 0.0 0.00 0.00 0.00 99 1014.5
20260510043011 10 270 0.0 0.0 0.00 0.00 0.00 99 1014.5
20260510042453 10 270 0.0 0.0 0.00 0.00 0.00 99 1014.5
20260510041812 10 270 0.0 0.0 0.00 0.00 0.00 99 1014.5
20260510041233 10 248 0.0 0.0 0.00 0.00 0.00 99 1014.5
20260510040650 10 158 0.0 0.0 0.00 0.00 0.00 99 1014.2
20260510040034 10 90 0.0 0.0 0.00 0.00 0.00 99 1014.2
20260510035411 10 90 0.0 0.0 0.00 0.00 0.00 99 1013.8
20260510034832 10 270 0.0 0.0 0.00 0.00 0.00 99 1014.2
20260510034252 10 270 0.0 0.0 0.00 0.00 0.00 99 1014.2
20260510033649 10 270 0.0 0.0 0.00 0.00 0.00 99 1014.2
20260510033031 10 270 0.0 0.0 0.00 0.00 0.00 99 1014.2
20260510031812 11 180 0.0 0.0 0.00 0.00 0.00 97 1013.8
20260510030611 11 68 0.0 0.0 0.00 0.00 0.00 98 1013.8
20260510030049 11 68 0.0 0.0 0.00 0.00 0.00 99 1013.8
20260510025434 11 68 0.0 0.0 0.00 0.00 0.00 99 1013.5
20260510024832 11 45 0.0 0.0 0.00 0.00 0.00 99 1013.5
20260510024246 11 270 0.0 0.0 0.00 0.00 0.00 99 1013.5
20260510023634 11 270 0.0 3.2 0.00 0.00 0.00 99 1013.5
20260510023034 11 270 0.0 0.0 0.00 0.00 0.00 99 1013.5
20260510022416 12 270 0.0 0.0 0.00 0.00 0.00 96 1013.5
20260510021826 12 270 0.0 0.0 0.00 0.00 0.00 96 1013.5
20260510021231 12 270 0.0 0.0 0.00 0.00 0.00 98 1013.5
20260510020622 12 270 0.0 0.0 0.00 0.00 0.00 98 1013.2
20260510020026 12 270 0.0 0.0 0.00 0.00 0.00 97 1013.2
20260510015442 12 270 0.0 0.0 0.00 0.00 0.00 95 1012.8
20260510014852 13 248 0.0 0.0 0.00 0.00 0.00 93 1012.8
20260510013018 13 270 0.0 0.0 0.00 0.00 0.00 91 1012.8
20260510012413 14 270 0.0 0.0 0.00 0.00 0.00 89 1012.8
20260510011251 15 270 0.0 0.0 0.00 0.00 0.00 88 1012.5
20260510010614 15 270 0.0 0.0 0.00 0.00 0.00 85 1012.5
20260510010036 15 270 0.0 0.0 0.00 0.00 0.00 86 1012.5
20260510005413 16 248 0.0 0.0 0.00 0.00 0.00 84 1012.5
20260510004825 16 270 0.0 0.0 0.00 0.00 0.00 83 1012.1
20260510003645 17 270 0.0 0.0 0.00 0.00 0.00 78 1012.1
20260510003033 17 180 0.0 0.0 0.00 0.00 0.00 78 1011.8
20260510001226 19 225 1.6 3.2 0.00 0.00 0.00 72 1011.5
20260510000613 19 158 3.2 4.8 0.00 0.00 0.00 71 1011.5
20260509235444 20 293 0.0 4.8 0.00 0.00 0.00 71 1011.5
20260509234822 21 225 3.2 4.8 0.00 0.00 0.00 70 1011.1
20260509234250 20 180 0.0 0.0 0.00 0.00 0.00 72 1011.1
20260509233643 21 113 0.0 6.4 0.00 0.00 0.00 68 1011.1
20260509233013 21 68 1.6 4.8 0.00 0.00 0.00 68 1011.1
20260509232435 21 180 4.8 4.8 0.00 0.00 0.00 65 1011.1
20260509231852 21 158 4.8 6.4 0.00 0.00 0.00 66 1011.5
20260509231230 21 180 4.8 8.0 0.00 0.00 0.00 65 1011.5
20260509230613 22 68 3.2 3.2 0.00 0.00 0.00 66 1011.5
20260509230052 22 270 0.0 4.8 0.00 0.00 0.00 63 1011.5
20260509225413 22 270 8.0 8.0 0.00 0.00 0.00 61 1011.5
20260509224809 22 270 11.3 11.3 0.00 0.00 0.00 61 1011.5
20260509224244 22 270 6.4 9.7 0.00 0.00 0.00 62 1011.5
20260509223611 21 270 3.2 6.4 0.00 0.00 0.00 62 1011.5
20260509223041 21 293 11.3 14.5 0.00 0.00 0.00 61 1011.5
20260509222426 22 270 14.5 16.1 0.00 0.00 0.00 59 1011.5
20260509221241 23 270 4.8 8.0 0.00 0.00 0.00 59 1011.5
20260509220647 22 270 3.2 9.7 0.00 0.00 0.00 64 1011.5
20260509220045 22 225 6.4 16.1 0.00 0.00 0.00 61 1011.8
20260509215432 22 270 11.3 14.5 0.00 0.00 0.00 63 1011.5
20260509214832 22 248 6.4 9.7 0.00 0.00 0.00 62 1011.5
20260509214223 22 270 14.5 14.5 0.00 0.00 0.00 62 1011.5
20260509213637 22 270 14.5 14.5 0.00 0.00 0.00 63 1011.5
20260509213010 22 270 8.0 12.9 0.00 0.00 0.00 63 1011.8
20260509211813 22 270 9.7 9.7 0.00 0.00 0.00 64 1011.8
20260509211250 21 180 8.0 9.7 0.00 0.00 0.00 65 1011.8
20260509210611 21 270 4.8 9.7 0.00 0.00 0.00 66 1011.5
20260509205444 20 270 4.8 11.3 0.00 0.00 0.00 68 1011.5
20260509204825 21 180 6.4 9.7 0.00 0.00 0.00 65 1011.5
20260509204228 21 270 12.9 17.7 0.00 0.00 0.00 62 1011.8
20260509203647 21 270 8.0 12.9 0.00 0.00 0.00 66 1011.8
20260509203012 21 225 3.2 6.4 0.00 0.00 0.00 65 1011.8
20260509201823 20 270 8.0 8.0 0.00 0.00 0.00 65 1011.8
20260509201236 21 225 6.4 14.5 0.00 0.00 0.00 66 1011.8
20260509200631 21 270 9.7 9.7 0.00 0.00 0.00 65 1011.8
20260509200017 20 270 14.5 14.5 0.00 0.00 0.00 65 1011.8
20260509195415 20 270 11.3 14.5 0.00 0.00 0.00 65 1011.8
20260509194841 20 270 16.1 16.1 0.00 0.00 0.00 65 1011.8
20260509194249 20 248 8.0 9.7 0.00 0.00 0.00 66 1012.1
20260509193009 20 270 8.0 11.3 0.00 0.00 0.00 65 1011.8
20260509192410 20 270 19.3 19.3 0.00 0.00 0.00 65 1011.8
20260509191840 20 248 8.0 9.7 0.00 0.00 0.00 66 1011.8
20260509191229 20 248 14.5 14.5 0.00 0.00 0.00 65 1011.8
20260509190020 20 270 8.0 9.7 0.00 0.00 0.00 66 1011.8
20260509185409 20 270 6.4 6.4 0.00 0.00 0.00 65 1011.8
20260509184824 20 270 8.0 8.0 0.00 0.00 0.00 66 1011.8
20260509184253 19 270 9.7 16.1 0.00 0.00 0.00 66 1011.8
20260509183027 19 270 6.4 11.3 0.00 0.00 0.00 66 1011.8
20260509181838 20 270 8.0 11.3 0.00 0.00 0.00 65 1011.8
20260509180628 19 270 8.0 12.9 0.00 0.00 0.00 67 1011.8
20260509175453 19 270 11.3 12.9 0.00 0.00 0.00 67 1012.1
20260509174808 19 248 9.7 12.9 0.00 0.00 0.00 66 1011.8
20260509174210 19 270 8.0 11.3 0.00 0.00 0.00 67 1011.8
20260509173620 18 270 4.8 9.7 0.00 0.00 0.00 69 1011.8
20260509173014 18 270 4.8 6.4 0.00 0.00 0.00 69 1011.8
20260509172411 18 270 6.4 11.3 0.00 0.00 0.00 69 1012.1
20260509171852 18 270 8.0 9.7 0.00 0.00 0.00 68 1012.1
20260509171238 18 270 8.0 11.3 0.00 0.00 0.00 68 1012.1
20260509170618 18 270 8.0 12.9 0.00 0.00 0.00 68 1012.1
20260509170029 18 270 11.3 11.3 0.00 0.00 0.00 69 1012.1
20260509165443 18 270 4.8 8.0 0.00 0.00 0.00 71 1012.1
20260509164828 18 45 6.4 8.0 0.00 0.00 0.00 69 1012.1
20260509164210 18 270 3.2 8.0 0.00 0.00 0.00 72 1012.1
20260509163638 18 293 3.2 4.8 0.00 0.00 0.00 71 1012.1
20260509163013 17 248 4.8 4.8 0.00 0.00 0.00 73 1011.8
20260509162437 17 293 4.8 6.4 0.00 0.00 0.00 72 1011.8
20260509161822 17 293 1.6 4.8 0.00 0.00 0.00 76 1012.1
20260509160649 17 68 3.2 4.8 0.00 0.00 0.00 77 1012.1
20260509160033 17 23 3.2 3.2 0.00 0.00 0.00 77 1012.1
20260509155420 17 90 0.0 0.0 0.00 0.00 0.00 76 1012.1
20260509154228 17 90 3.2 4.8 0.00 0.00 0.00 75 1012.1
20260509153032 17 90 4.8 8.0 0.00 0.00 0.00 77 1012.8
20260509152414 17 90 3.2 6.4 0.00 0.00 0.00 80 1012.8
20260509151828 16 90 4.8 6.4 0.00 0.00 0.00 80 1012.8
20260509151235 16 45 4.8 4.8 0.00 0.00 0.00 81 1012.8
20260509150627 16 68 4.8 4.8 0.00 0.00 0.00 81 1012.8
20260509150028 16 338 1.6 3.2 0.00 0.00 0.00 82 1012.8
20260509144832 15 45 3.2 4.8 0.00 0.00 0.00 82 1012.8
20260509144224 15 90 3.2 3.2 0.00 0.00 0.00 82 1012.8
20260509143636 16 23 3.2 3.2 0.00 0.00 0.00 82 1012.8
20260509143012 15 135 3.2 4.8 0.00 0.00 0.00 82 1012.5
20260509141828 15 45 3.2 4.8 0.00 0.00 0.00 85 1012.5
20260509141214 15 135 1.6 4.8 0.00 0.00 0.00 85 1012.5
20260509140624 15 135 3.2 8.0 0.00 0.00 0.00 85 1012.5
20260509140028 15 113 4.8 6.4 0.00 0.00 0.00 86 1012.5
20260509134837 14 45 0.0 3.2 0.00 0.00 0.00 94 1012.5
20260509134244 14 90 1.6 4.8 0.00 0.00 0.00 95 1012.8
20260509133650 14 113 0.0 0.0 0.00 0.00 0.00 97 1012.8
20260509132445 14 90 0.0 0.0 0.00 0.00 0.00 93 1013.5
20260509131831 13 293 0.0 0.0 0.00 0.00 0.00 97 1013.2
20260509131230 13 203 0.0 0.0 0.00 0.00 0.00 98 1013.2
20260509130652 13 90 0.0 0.0 0.00 0.00 0.00 99 1013.2
20260509130043 13 23 0.0 0.0 0.00 0.00 0.00 99 1013.2
20260509125447 12 45 0.0 0.0 0.00 0.00 0.00 99 1013.2
20260509124841 12 113 0.0 0.0 0.00 0.00 0.00 99 1013.2
20260509124212 13 90 0.0 0.0 0.00 0.00 0.00 99 1013.5
20260509123042 12 90 0.0 0.0 0.00 0.00 0.00 99 1013.5
20260509121230 12 90 0.0 0.0 0.00 0.00 0.00 99 1013.2
20260509120629 12 270 4.8 4.8 0.00 0.00 0.00 99 1013.2
20260509120027 12 158 0.0 0.0 0.00 0.00 0.00 99 1013.5
20260509114814 12 248 0.0 0.0 0.00 0.00 0.00 99 1013.5
20260509114227 12 248 0.0 0.0 0.00 0.00 0.00 99 1013.5
20260509113623 12 248 0.0 0.0 0.00 0.00 0.00 99 1013.2
20260509113044 12 248 0.0 0.0 0.00 0.00 0.00 99 1013.2
20260509112418 12 248 0.0 0.0 0.00 0.00 0.00 99 1013.2
20260509111819 12 270 0.0 0.0 0.00 0.00 0.00 99 1013.2
20260509111221 12 248 0.0 0.0 0.00 0.00 0.00 99 1013.2
20260509110014 11 180 0.0 0.0 0.00 0.00 0.00 99 1013.2
20260509105429 11 113 0.0 0.0 0.00 0.00 0.00 99 1012.8
20260509104808 11 113 0.0 0.0 0.00 0.00 0.00 99 1012.8
20260509104234 11 113 0.0 0.0 0.00 0.00 0.00 99 1012.8
20260509103638 11 113 0.0 0.0 0.00 0.00 0.00 99 1012.8
20260509103021 11 113 0.0 0.0 0.00 0.00 0.00 99 1012.8
20260509101840 11 90 0.0 0.0 0.00 0.00 0.00 99 1012.8
20260509100614 11 113 0.0 0.0 0.00 0.00 0.00 99 1013.2
20260509100011 11 135 0.0 0.0 0.00 0.00 0.00 99 1013.2